HST
1 20580U 90037B   24143.14378366  .00007245  00000-0  34302-3 0  9999
2 20580  28.4667 159.5766 0002772 113.4123 246.6761 15.17417371673333
ISS (ZARYA)
1 25544U 98067A   24143.31696429  .00022241  00000-0  37327-3 0  9990
2 25544  51.6396  83.5695 0003239 196.4457 306.2391 15.51710854454533
CXO
1 25867U 99040B   24144.06363878  .00000674  00000-0  00000-0 0  9993
2 25867  40.5814 156.2306 8913299 294.7194   0.0380  0.37813759 14472